FW8715 Weather Reports


Display with metric or nautical units.
time (UTC)temp
F
wind
direction
speed
MPH
gust
MPH
rain 1hr
in
rain 24hr
in
rain mn
in
humidity
%
barometer
mb
20260507165604 64 63 1.0 1.0 0.00 0.00 0.03 61 1014.5
20260507162605 63 330 1.0 1.0 0.00 0.00 0.12 62 1014.9
20260507155605 63 317 2.0 2.0 0.00 0.00 0.12 62 1014.9
20260507152606 65 300 3.0 4.0 0.00 0.00 0.12 59 1015.2
20260507145606 64 312 3.0 3.0 0.00 0.00 0.12 59 1015.2
20260507142604 63 307 2.0 3.0 0.00 0.00 0.12 61 1015.2
20260507135606 63 288 3.0 3.0 0.00 0.00 0.12 60 1015.5
20260507132606 64 329 1.0 1.0 0.00 0.00 0.12 61 1015.9
20260507122605 61 69 1.0 1.0 0.00 0.00 0.12 62 1015.9
20260507115606 61 320 1.0 1.0 0.00 0.00 0.12 64 1016.2
20260507112605 61 301 1.0 1.0 0.00 0.00 0.12 66 1016.2
20260507102606 60 70 1.0 1.0 0.00 0.00 0.12 68 1016.5
20260507095604 56 336 1.0 1.0 0.00 0.00 0.13 78 1016.9
20260507092604 55 253 1.0 1.0 0.00 0.00 0.14 81 1016.9
20260507085605 54 354 0.0 0.0 0.00 0.00 0.14 85 1016.9
20260507082606 53 84 1.0 1.0 0.00 0.00 0.15 90 1016.9
20260507075605 50 198 0.0 0.0 0.00 0.00 0.19 94 1016.9
20260507072604 48 224 0.0 0.0 0.00 0.00 0.26 99 1016.5
20260507065606 47 263 2.0 2.0 0.00 0.00 0.32 99 1016.5
20260507055606 47 228 0.0 0.0 0.00 0.00 0.49 99 1016.2
20260507052605 47 228 0.0 0.0 0.00 0.00 0.60 99 1015.9
20260507042606 46 236 0.0 0.0 0.00 0.00 0.71 99 1015.5
20260507032606 46 156 0.0 0.0 0.00 0.00 0.84 99 1015.5
20260507025605 46 72 0.0 0.0 0.00 0.00 0.86 99 1015.2
20260507015606 48 230 0.0 0.0 0.00 0.00 0.86 99 1015.2
20260507005604 47 224 0.0 0.0 0.00 0.00 0.86 99 1015.2
20260507002605 47 224 0.0 0.0 0.00 0.00 0.86 99 1015.2
20260506235606 47 229 0.0 0.0 0.00 0.00 0.86 99 1015.2
20260506225606 49 218 0.0 0.0 0.00 0.00 0.86 99 1014.9
20260506222606 49 230 0.0 0.0 0.00 0.00 0.87 97 1014.9
20260506215605 49 230 0.0 0.0 0.00 0.86 0.87 97 1014.9
20260506212604 49 228 0.0 0.0 0.00 0.86 0.87 97 1014.5
20260506205606 49 234 0.0 0.0 0.00 0.86 0.88 97 1014.5
20260506202605 49 234 0.0 0.0 0.00 0.86 0.88 95 1014.2
20260506195606 50 235 0.0 0.0 0.00 0.86 0.88 94 1013.5
20260506185606 51 268 0.0 0.0 0.00 0.86 0.93 86 1012.8
20260506182605 51 328 1.0 1.0 0.00 0.86 0.94 86 1012.8
20260506175606 51 267 1.0 1.0 0.03 0.86 0.95 88 1012.5
20260506172604 52 79 1.0 1.0 0.12 0.86 1.05 87 1011.5